Flag for U.S.A. Weather past 2 weeks in Pasadena, California, U.S.A.

Now
76 °F

Sunny.


Feels Like: 78 °F
Forecast: 62 / 80 °F
Wind: 7 mph from Southwest

Location: Burbank-Glendale-Pasadena Airport

Current Time: Jul 5, 2015 at 1:19:41 PM

Latest Report: Jul 5, 2015 at 12:53 PM


Visibility: 6 mi

Pressure: 29.94 "Hg

Humidity: 56%

Dew point: 59 °F

Location of PasadenaLocation

Historic Weather in Pasadena — Graph

°F

Pasadena temperature yesterday

Maximum temperature yesterday: 81 °F (at 1:53 PM)
Minimum temperature yesterday: 64 °F (at 2:53 AM)
Average temperature yesterday: 71 °F

Past Weeks' High & Low Weather Summary

 TemperatureHumidityPressure
High97 °F (Jun 29, 2:53 PM)85% (Jun 21, 5:53 AM)29.99 "Hg (Jun 21, 5:53 AM)
Low63 °F (Jun 26, 5:53 AM)14% (Jun 30, 7:53 PM)29.77 "Hg (Jun 30, 7:53 PM)
Average77 °F52%29.87 "Hg
* Reported Jun 20 11:53 AM — Jul 5 11:53 AM, Pasadena, Weather by CustomWeather, © 2015

Note: Actual official high and low records may vary slightly from our data, if they occured in-between our weather recording intervals... More about our weather records

Advertising

Pasadena weather history for previous 24 hours

 ConditionsComfort  
Time TempWeatherWind HumidityBarometerVisibility
11:53 AM
Sun, Jul 5
74 °FSunny.7 mph60%29.96 "Hg6 mi
10:53 AM71 °FPartly sunny.3 mph66%29.96 "Hg5 mi
9:53 AM67 °FLow clouds.5 mph73%29.95 "Hg3 mi
8:53 AM66 °FLow clouds.No wind75%29.95 "Hg3 mi
7:53 AM65 °FLow clouds.No wind78%29.94 "Hg3 mi
6:53 AM64 °FLow clouds.No wind81%29.93 "Hg3 mi
5:53 AM65 °FOvercast.No wind78%29.91 "Hg4 mi
4:53 AM65 °FLow clouds.No wind78%29.90 "Hg4 mi
3:53 AM64 °FLow clouds.3 mph81%29.90 "Hg5 mi
2:53 AM64 °FLow clouds.3 mph81%29.90 "Hg4 mi
1:53 AM63 °FPassing clouds.5 mph84%29.90 "Hg5 mi
12:53 AM63 °FClear.5 mph84%29.90 "Hg6 mi
11:53 PM
Sat, Jul 4
64 °FClear.6 mph81%29.90 "Hg10 mi
10:53 PM65 °FClear.8 mph78%29.90 "Hg6 mi
9:53 PM68 °FClear.8 mph70%29.88 "Hg10 mi
8:53 PM68 °FSunny.6 mph70%29.86 "Hg10 mi
7:53 PM70 °FSunny.8 mph66%29.84 "Hg10 mi
6:53 PM73 °FSunny.12 mph62%29.81 "Hg10 mi
5:53 PM78 °FSunny.10 mph50%29.80 "Hg10 mi
4:53 PM79 °FSunny.8 mph50%29.80 "Hg10 mi
3:53 PM80 °FSunny.13 mph49%29.82 "Hg10 mi
2:53 PM80 °FSunny.12 mph49%29.83 "Hg10 mi
1:53 PM81 °FSunny.9 mph49%29.84 "Hg10 mi
Weather by CustomWeather, © 2015

See weather overviewHow to use our weather pages